www.pogodaiklimat.ru

Погода и климат >> Архив погоды >> Австралия >> Северная территория >> Остров Центр


ПОГОДА на Острове Центр

  • Прогноз погоды на Острове Центр
  • Монитор погоды на Острове Центр

АРХИВ ПОГОДЫ на Острове Центр

Время (UTC), дата Ветер
(напр.,м/с)
 
Видим.   Явления Облачность Т
(С)
Тd
(С)
f
(%)
Тe
(С)
Тes
(С)
Комфортность P
(гПа)
Po
(гПа)
Тmin
(С)
Tmax
(С)
R
(мм)
R24
(мм)
S
(см)
20 16.01 Ю 4 н/о н/о +27.7 +25.1 86 +40 +40 очень
душно
1006.4 1005.0
21 16.01 Ю 3 н/о н/о +27.8 +25.2 86 +40 +40 очень
душно
1007.4 1006.0
23 16.01 ЮВ 4 н/о н/о +29.3 +25.5 80 +43 +43 опасность
перегрева
1008.4 1007.0
00 17.01 ЮВ 3 н/о н/о +30.2 +25.5 76 +44 +44 опасность
перегрева
1008.5 1007.1
02 17.01 СВ 4 н/о н/о +33.1 +25.4 64 +48 +48 опасность
перегрева
1007.9 1006.5
03 17.01 С 5 н/о н/о +31.5 +25.6 71 +46 +46 опасность
перегрева
1007.2 1005.8
05 17.01 В 4 н/о н/о +33.1 +25.1 63 +47 +47 опасность
перегрева
1005.8 1004.4
06 17.01 СВ 2 н/о н/о +32.2 +24.5 64 +45 +45 опасность
перегрева
1005.0 1003.6
08 17.01 СВ 7 н/о н/о +31.4 +26.0 73 +47 +47 опасность
перегрева
1005.4 1004.0
09 17.01 СВ 8 н/о н/о +30.6 +25.2 73 +44 +44 опасность
перегрева
1005.8 1004.4
11 17.01 СВ 7 н/о н/о +29.5 +25.7 80 +44 +44 опасность
перегрева
1006.1 1004.7
12 17.01 СВ 6 н/о н/о +29.4 +25.4 79 +43 +43 опасность
перегрева
1006.9 1005.5
14 17.01 С 5 н/о н/о +29.7 +25.9 80 +44 +44 опасность
перегрева
1007.2 1005.8
15 17.01 С 5 н/о н/о +29.9 +25.6 78 +44 +44 опасность
перегрева
1006.7 1005.3
17 17.01 С 5 н/о н/о +29.6 +25.8 80 +44 +44 опасность
перегрева
1005.2 1003.8
18 17.01 С 5 н/о н/о +29.5 +25.7 80 +44 +44 опасность
перегрева
1004.8 1003.4
20 17.01 штиль 0 н/о н/о +28.7 +25.9 85 +43 +43 опасность
перегрева
1005.7 1004.3
21 17.01 С 2 н/о н/о +29.3 +26.3 84 +45 +45 опасность
перегрева
1006.3 1004.9
23 17.01 С 3 н/о н/о +31.8 +25.6 70 +47 +47 опасность
перегрева
1007.1 1005.7
00 18.01 СВ 5 н/о н/о +32.5 +24.5 63 +45 +45 опасность
перегрева
1007.4 1006.0
02 18.01 СВ 5 н/о н/о +33.6 +25.0 61 +47 +47 опасность
перегрева
1007.7 1006.3
03 18.01 СВ 6 н/о н/о +34.0 +25.4 61 +48 +48 опасность
перегрева
1007.1 1005.7
05 18.01 СВ 7 н/о н/о +33.2 +25.2 63 +47 +47 опасность
перегрева
1006.1 1004.7
06 18.01 СВ 8 н/о н/о +32.6 +26.2 69 +49 +49 опасность
перегрева
1006.0 1004.6
08 18.01 СВ 8 н/о н/о +31.6 +24.7 67 +45 +45 опасность
перегрева
1006.5 1005.1
09 18.01 СВ 6 н/о н/о +30.8 +24.7 70 +44 +44 опасность
перегрева
1006.7 1005.3
11 18.01 С 4 н/о н/о +30.3 +24.2 70 +42 +42 опасность
перегрева
1007.5 1006.1
12 18.01 С 3 н/о н/о +30.2 +24.6 72 +43 +43 опасность
перегрева
1008.3 1006.9
14 18.01 СВ 6 н/о н/о +30.1 +25.4 76 +44 +44 опасность
перегрева
1009.1 1007.7
15 18.01 СВ 5 н/о н/о +30.0 +25.1 75 +43 +43 опасность
перегрева
1008.8 1007.4
17 18.01 С 6 н/о н/о +29.7 +25.2 77 +43 +43 опасность
перегрева
1006.9 1005.5
18 18.01 С 5 н/о н/о +29.5 +25.7 80 +44 +44 опасность
перегрева
1006.4 1005.0
20 18.01 С 4 н/о н/о +29.4 +25.6 80 +43 +43 опасность
перегрева
1007.0 1005.6
21 18.01 С 5 н/о н/о +29.6 +25.6 79 +44 +44 опасность
перегрева
1007.7 1006.3
23 18.01 СВ 4 н/о н/о +31.9 +24.7 66 +45 +45 опасность
перегрева
1009.4 1008.0
00 19.01 СВ 3 н/о н/о +32.9 +25.2 64 +47 +47 опасность
перегрева
1009.7 1008.3
02 19.01 СВ 4 н/о н/о +33.5 +24.7 60 +47 +47 опасность
перегрева
1009.1 1007.7
03 19.01 СВ 5 н/о н/о +34.0 +26.2 64 +50 +50 опасность
перегрева
1008.7 1007.3
05 19.01 СВ 5 н/о н/о +33.9 +25.0 60 +48 +48 опасность
перегрева
1007.3 1005.9
06 19.01 С 5 н/о н/о +33.8 +25.5 62 +48 +48 опасность
перегрева
1006.4 1005.0
08 19.01 С 5 н/о н/о +32.4 +24.7 64 +45 +45 опасность
перегрева
1006.2 1004.8
09 19.01 СВ 5 н/о н/о +31.4 +25.3 70 +45 +45 опасность
перегрева
1007.0 1005.6
11 19.01 СВ 4 н/о н/о +30.7 +25.3 73 +45 +45 опасность
перегрева
1008.4 1007.0
12 19.01 СВ 6 н/о н/о +30.6 +25.2 73 +44 +44 опасность
перегрева
1008.3 1006.9
14 19.01 С 6 н/о н/о +30.4 +25.5 75 +45 +45 опасность
перегрева
1008.1 1006.7
15 19.01 С 5 н/о н/о +30.2 +25.7 77 +45 +45 опасность
перегрева
1007.3 1005.9
17 19.01 С 3 н/о н/о +29.5 +25.7 80 +44 +44 опасность
перегрева
1006.3 1004.9
18 19.01 СВ 5 н/о н/о +30.0 +25.5 77 +44 +44 опасность
перегрева
1006.2 1004.8
20 19.01 СВ 5 н/о н/о +29.7 +24.6 74 +42 +42 опасность
перегрева
1006.7 1005.3
21 19.01 СВ 6 н/о н/о +30.0 +24.9 74 +43 +43 опасность
перегрева
1007.6 1006.2
23 19.01 СВ 6 н/о н/о +31.4 +25.0 69 +45 +45 опасность
перегрева
1008.8 1007.4
00 20.01 СВ 6 н/о н/о +32.4 +26.0 69 +48 +48 опасность
перегрева
1009.1 1007.7
02 20.01 СВ 7 н/о н/о +33.3 +25.6 64 +48 +48 опасность
перегрева
1008.4 1007.0
03 20.01 СВ 5 н/о н/о +34.1 +25.8 62 +49 +49 опасность
перегрева
1008.0 1006.6
05 20.01 В 4 н/о н/о +29.3 +26.7 86 +46 +46 опасность
перегрева
1007.0 1005.6
06 20.01 ЮВ 7 н/о н/о +29.3 +26.3 84 +45 +45 опасность
перегрева
1006.4 1005.0
08 20.01 В 6 н/о н/о +26.4 +25.0 92 +38 +38 очень
душно
1007.8 1006.4
09 20.01 В 5 н/о н/о +26.4 +25.0 92 +38 +38 очень
душно
1008.1 1006.7
11 20.01 ЮВ 4 н/о н/о +26.8 +25.4 92 +39 +39 очень
душно
1007.9 1006.5
12 20.01 В 2 н/о н/о +27.3 +25.3 89 +40 +40 очень
душно
1008.8 1007.4
14 20.01 В 4 н/о н/о +28.0 +25.2 85 +41 +41 опасность
перегрева
1008.1 1006.7
15 20.01 СВ 4 н/о н/о +28.4 +25.8 86 +42 +42 опасность
перегрева
1007.1 1005.7
17 20.01 С 2 н/о н/о +28.3 +25.5 85 +42 +42 опасность
перегрева
1005.9 1004.5
18 20.01 С 3 н/о н/о +28.7 +25.3 82 +42 +42 опасность
перегрева
1005.8 1004.4
20 20.01 штиль 0 н/о н/о +27.8 +25.4 87 +41 +41 опасность
перегрева
1006.2 1004.8
21 20.01 Ю 4 н/о н/о +27.5 +25.1 87 +40 +40 очень
душно
1007.2 1005.8
23 20.01 Ю 4 н/о н/о +29.2 +25.6 81 +43 +43 опасность
перегрева
1008.3 1006.9
00 21.01 Ю 3 н/о н/о +29.7 +25.7 79 +44 +44 опасность
перегрева
1008.2 1006.8
02 21.01 С 6 н/о н/о +28.2 +24.4 80 +40 +40 очень
душно
1008.3 1006.9
03 21.01 СВ 6 н/о н/о +32.0 +24.3 64 +44 +44 опасность
перегрева
1007.7 1006.3
05 21.01 СВ 5 н/о н/о +32.3 +24.9 65 +46 +46 опасность
перегрева
1007.2 1005.8
06 21.01 СВ 4 н/о н/о +32.1 +24.9 66 +46 +46 опасность
перегрева
1007.0 1005.6
08 21.01 В 5 н/о н/о +28.3 +25.5 85 +42 +42 опасность
перегрева
1006.5 1005.1
09 21.01 ЮВ 4 н/о н/о +28.6 +25.6 84 +42 +42 опасность
перегрева
1007.3 1005.9
11 21.01 В 3 н/о н/о +28.8 +25.8 84 +43 +43 опасность
перегрева
1008.2 1006.8
12 21.01 В 4 н/о н/о +29.3 +24.8 77 +42 +42 опасность
перегрева
1008.7 1007.3
14 21.01 СВ 3 н/о н/о +29.5 +24.4 74 +41 +41 опасность
перегрева
1008.6 1007.2
15 21.01 СВ 4 н/о н/о +29.4 +24.0 73 +41 +41 опасность
перегрева
1008.0 1006.6
17 21.01 СЗ 2 н/о н/о +28.1 +23.9 78 +39 +39 очень
душно
1006.6 1005.2
18 21.01 С 2 н/о н/о +27.8 +24.0 80 +39 +39 очень
душно
1006.4 1005.0
20 21.01 штиль 0 н/о н/о +27.7 +24.1 81 +39 +39 очень
душно
1006.8 1005.4
21 21.01 В 4 н/о н/о +28.8 +23.9 75 +40 +40 очень
душно
1007.3 1005.9
23 21.01 СВ 4 н/о н/о +30.5 +23.7 67 +42 +42 опасность
перегрева
1008.6 1007.2
00 22.01 В 5 н/о н/о +31.5 +24.6 67 +44 +44 опасность
перегрева
1008.9 1007.5
02 22.01 В 8 н/о н/о +29.7 +25.2 77 +43 +43 опасность
перегрева
1008.5 1007.1
03 22.01 В 8 н/о н/о +31.8 +24.4 65 +44 +44 опасность
перегрева
1007.9 1006.5
05 22.01 СВ 7 н/о н/о +32.1 +24.4 64 +45 +45 опасность
перегрева
1007.1 1005.7
06 22.01 СВ 6 н/о н/о +32.2 +24.8 65 +45 +45 опасность
перегрева
1007.1 1005.7
08 22.01 С 5 н/о н/о +30.3 +25.1 74 +44 +44 опасность
перегрева
1007.0 1005.6
09 22.01 С 3 н/о н/о +29.7 +24.8 75 +42 +42 опасность
перегрева
1007.3 1005.9
11 22.01 СВ 4 н/о н/о +29.3 +25.1 78 +42 +42 опасность
перегрева
1007.9 1006.5
12 22.01 СВ 4 н/о н/о +29.3 +25.3 79 +43 +43 опасность
перегрева
1008.3 1006.9
14 22.01 С 3 н/о н/о +28.9 +25.1 80 +42 +42 опасность
перегрева
1008.7 1007.3
15 22.01 С 4 н/о н/о +28.6 +25.2 82 +42 +42 опасность
перегрева
1007.9 1006.5
17 22.01 С 3 н/о н/о +28.3 +25.3 84 +41 +41 опасность
перегрева
1006.6 1005.2
18 22.01 СЗ 2 н/о н/о +28.2 +25.2 84 +41 +41 опасность
перегрева
1006.3 1004.9
20 22.01 штиль 0 н/о н/о +27.4 +25.0 87 +39 +39 очень
душно
1006.4 1005.0
21 22.01 штиль 0 н/о н/о +27.5 +24.9 86 +39 +39 очень
душно
1006.9 1005.5
23 22.01 СВ 2 н/о н/о +30.9 +24.5 69 +44 +44 опасность
перегрева
1008.4 1007.0
00 23.01 С 2 н/о н/о +31.2 +23.8 65 +43 +43 опасность
перегрева
1008.7 1007.3
02 23.01 СВ 4 н/о н/о +32.9 +23.5 58 +44 +44 опасность
перегрева
1008.3 1006.9
03 23.01 СВ 4 н/о н/о +33.2 +23.8 58 +45 +45 опасность
перегрева
1007.5 1006.1
05 23.01 В 7 н/о н/о +31.4 +21.8 57 +40 +40 очень
душно
1006.5 1005.1
06 23.01 В 3 н/о н/о +31.9 +23.4 61 +43 +43 опасность
перегрева
1006.0 1004.6
08 23.01 СВ 5 н/о н/о +31.3 +24.4 67 +44 +44 опасность
перегрева
1005.5 1004.1
09 23.01 СВ 5 н/о н/о +30.4 +23.8 68 +42 +42 опасность
перегрева
1005.9 1004.5
11 23.01 СВ 5 н/о н/о +29.9 +24.3 72 +42 +42 опасность
перегрева
1007.0 1005.6
12 23.01 С 4 н/о н/о +29.9 +24.8 74 +43 +43 опасность
перегрева
1007.6 1006.2
14 23.01 С 4 н/о н/о +29.4 +24.3 74 +41 +41 опасность
перегрева
1007.1 1005.7
15 23.01 С 3 н/о н/о +29.1 +24.7 77 +41 +41 опасность
перегрева
1006.7 1005.3
17 23.01 С 3 н/о н/о +28.6 +24.6 79 +41 +41 опасность
перегрева
1005.3 1003.9
18 23.01 СЗ 2 н/о н/о +28.2 +25.0 83 +41 +41 опасность
перегрева
1004.9 1003.5

 

Местоположение метеостанции Остров Центр (Северная территория, Австралия): широта -15.75 долгота 136.80 высота над уровнем моря 13 м.

В архиве по умолчанию представлена погода на Острове Центр за последнюю неделю. Архивные данные за месяц целиком и за предыдущие месяцы, начиная с января 2011 года, Вы можете получить, выбрав интересующий диапазон дат из раскрывающегося списка и нажав кнопку "Ввод!".


*Определитесь, кто Вы:
робот инопланетянин человек

Внимание! Время в таблицах - всемирное. Для получения местного времени необходимо прибавить поправку, которая равна 9.5 ч.

Смотрите также архив погоды в соседних городах и на ближайших метеорологических станциях:

Погода в Борролооле (Северная территория, Австралия) (65 км)
Погода в Аэропорту Макартур Ривер Майн (Северная территория, Австралия) (109 км)
Погода в Аэропорту Грут-Айленд (Северная территория, Австралия) (200 км)
Погода на Острове Северо-восточный (Северная территория, Австралия) (234 км)
Погода на Острове Морнингтон (Квинсленд, Австралия) (273 км)
Погода в Булман Уимол (Северная территория, Австралия) (352 км)
Погода в Беркетауне (Квинсленд, Австралия) (366 км)
Погода в Дейли Уотерс (Северная территория, Австралия) (371 км)
Погода в Аэропорту Гоув (Северная территория, Австралия) (386 км)
Погода на Руднике Century Mine (Квинсленд, Австралия) (390 км)

Пояснения к столбцам:

Ветер - указаны скорость ветра в м/с - средняя за 10 мин, порывы в срок и между сроками (в фигурных скобках) и направление, откуда дует ветер: С - северный, СВ - северо-восточный, В - восточный, ЮВ - юго-восточный, Ю - южный, ЮЗ - юго-западный, З - западный, СЗ - северо-западный.
Видимость - горизонтальная дальность видимости в метрах или километрах. При видимости от 1 до 10 км при отсутствии осадков обычно наблюдается дымка, при ухудшении видимости до 1 км и менее - туман. В сухую погоду видимость может ухудшаться дымом, пылью или мглою.
Явления - указаны атмосферные явления, наблюдавшиеся в срок или в последний час перед сроком; фигурными скобками обозначены явления, наблюдавшиеся между сроками (за 1-3 часа до срока); квадратными скобками обозначены град или гололедные отложения с указанием их диаметра в мм.
Облачность - указаны через наклонную черту общая и нижняя облачность в баллах и высота нижней границы облаков в метрах; квадратными скобками обозначены формы облаков: Ci - перистые, Cs - перисто-слоистые, Cc - перисто-кучевые, Ac - высококучевые, As - высокослоистые, Sc - слоисто-кучевые, Ns - слоисто-дождевые, Cu - кучевые, Cb - кучево-дождевые. Подробнее классификацию облаков см. в Атласе облаков (PDF).
T - Температура воздуха - температура, измеренная на высоте 2 м над землей.
Td - Температура точки росы - температура, при понижении до которой содержащийся в воздухе водяной пар достигнет насыщения.
f - Относительная влажность воздуха - влажноcть воздуха, измеренная на высоте 2 м над землей.
Te - Эффективная температура - температура, которую ощущает одетый по сезону человек в тени. Характеристика душности погоды. При расчете учитывается влияние влажности воздуха и скорости ветра на теплоощущения человека.
Tes - Эффективная температура на солнце - температура, которую ощущает человек, с поправкой на солнечный нагрев. Характеристика знойности погоды. Зависит от высоты солнца над горизонтом, облачности и скорости ветра. Ночью, в пасмурную погоду, а также при ветре 12 м/с и более поправка равна нулю.
P - Атмосферное давление - приведенное к уровню моря атмосферное давление.
Po - Атмосферное давление - измеренное на уровне метеостанции атмосферное давление.
Tmin - Минимальная температура - минимум температуры воздуха на высоте 2 м над землей.
Tmax - Максимальная температура - максимум температуры воздуха на высоте 2 м над землей.
R - Количество осадков - Количество выпавших осадков за период времени, мм. При наведении курсора мыши на число - период времени, за который выпало указанное количество осадков.
R24 - Количество осадков - Количество выпавших осадков за 24 часа, мм.
S - Снежный покров - Высота снежного покрова, см. При наведении курсора мыши на число - состояние снежного покрова и степень покрытия местности в баллах.